EWG86A EDDL-HEMA

Flight info

Callsign EWG86A
Flight time N/A
Altitude 35000
Route DODEN7Z DODEN Y853 BOMBI DCT DETEV DCT DINKU DCT BESNI DCT GOMIG DCT GOLVA DCT RAVAK DCT NISVA DCT VIT DCT RODIP UN131 PIBOM DCT BELGI UN131 KULAR UT39 TOMBI DCT DASNI M855 KOMEZ DCT RASDA/N0451F370 A16 CVO A727 LXR M999 ELELI V730 MAK
Aircraft A320/M-SDE3FGHIRWY/LB1

Departure

Time 2026-05-07 16:04
Airport Düsseldorf Airport (EDDL)

Arrival

Time N/A
Airport Marsa Alam International Airport (HEMA)
Time Latitude Longitude Altitude Speed Heading
2026-05-07 15:22 51.28150 6.76545 131 ft 0 kts 96°
2026-05-07 15:52 51.28151 6.76530 131 ft 2 kts 94°
2026-05-07 15:53 51.28152 6.76504 130 ft 2 kts 91°
2026-05-07 15:53 51.28152 6.76474 128 ft 3 kts 84°
2026-05-07 15:53 51.28149 6.76444 128 ft 2 kts 59°
2026-05-07 15:53 51.28140 6.76426 128 ft 3 kts 17°
2026-05-07 15:54 51.28119 6.76420 127 ft 3 kts
2026-05-07 15:54 51.28098 6.76417 127 ft 2 kts 339°
2026-05-07 15:54 51.28088 6.76425 127 ft 2 kts 332°
2026-05-07 15:54 51.28079 6.76434 125 ft 0 kts 323°
2026-05-07 15:56 51.28090 6.76422 126 ft 6 kts 324°
2026-05-07 15:57 51.28126 6.76364 129 ft 7 kts 305°
2026-05-07 15:57 51.28158 6.76284 128 ft 8 kts 315°
2026-05-07 15:57 51.28168 6.76271 129 ft 0 kts 323°
2026-05-07 15:57 51.28169 6.76271 129 ft 0 kts 323°
2026-05-07 15:58 51.28196 6.76236 127 ft 8 kts 311°
2026-05-07 15:58 51.28194 6.76160 125 ft 6 kts 239°
2026-05-07 15:58 51.28184 6.76136 124 ft 0 kts 235°
2026-05-07 15:59 51.28176 6.76119 126 ft 7 kts 234°
2026-05-07 15:59 51.28135 6.76032 127 ft 12 kts 232°
2026-05-07 15:59 51.28084 6.75926 127 ft 12 kts 232°
2026-05-07 15:59 51.28030 6.75813 126 ft 13 kts 232°
2026-05-07 16:00 51.27976 6.75698 127 ft 13 kts 233°
2026-05-07 16:00 51.27946 6.75591 127 ft 7 kts 280°
2026-05-07 16:00 51.27969 6.75546 126 ft 4 kts 325°
2026-05-07 16:00 51.27990 6.75529 124 ft 0 kts 333°
2026-05-07 16:01 51.27992 6.75527 124 ft 1 kts 333°
2026-05-07 16:01 51.28036 6.75494 123 ft 12 kts 336°
2026-05-07 16:01 51.28102 6.75496 124 ft 8 kts 45°
2026-05-07 16:02 51.28115 6.75522 123 ft 0 kts 53°
2026-05-07 16:03 51.28129 6.75553 127 ft 18 kts 53°
2026-05-07 16:03 51.28370 6.76056 126 ft 93 kts 53°
2026-05-07 16:03 51.28889 6.77144 128 ft 150 kts 52°
2026-05-07 16:03 51.29588 6.78605 480 ft 168 kts 52°
2026-05-07 16:04 51.30284 6.80104 1217 ft 168 kts 51°
2026-05-07 16:04 51.31019 6.81657 1687 ft 183 kts 50°
2026-05-07 16:04 51.31848 6.83384 1994 ft 206 kts 50°
2026-05-07 16:04 51.32760 6.85271 2297 ft 224 kts 50°
2026-05-07 16:05 51.33747 6.87378 2521 ft 250 kts 53°
2026-05-07 16:05 51.34712 6.89841 2927 ft 270 kts 62°
2026-05-07 16:05 51.35222 6.92773 3627 ft 281 kts 88°
2026-05-07 16:05 51.35016 6.95881 4473 ft 282 kts 100°
2026-05-07 16:06 51.34685 6.99003 5235 ft 287 kts 100°
2026-05-07 16:06 51.34339 7.02173 6011 ft 291 kts 100°
2026-05-07 16:06 51.34000 7.05374 6881 ft 292 kts 100°
2026-05-07 16:06 51.33669 7.08615 7657 ft 297 kts 99°
2026-05-07 16:07 51.33330 7.11891 8465 ft 301 kts 100°
2026-05-07 16:07 51.32957 7.15214 9220 ft 305 kts 107°
2026-05-07 16:07 51.32128 7.18343 9925 ft 307 kts 123°
2026-05-07 16:07 51.30793 7.21003 10537 ft 313 kts 137°
2026-05-07 16:08 51.29174 7.23519 10724 ft 336 kts 138°
2026-05-07 16:08 51.27429 7.26212 10896 ft 359 kts 137°
2026-05-07 16:08 51.25591 7.29062 11029 ft 379 kts 137°
2026-05-07 16:08 51.23673 7.32056 11404 ft 388 kts 137°
2026-05-07 16:09 51.21994 7.34690 11857 ft 394 kts 137°
2026-05-07 16:09 51.20036 7.37777 12452 ft 398 kts 137°
2026-05-07 16:09 51.18057 7.40907 13059 ft 402 kts 137°
2026-05-07 16:09 51.16066 7.44049 13633 ft 405 kts 137°
2026-05-07 16:10 51.14054 7.47198 14188 ft 408 kts 137°
2026-05-07 16:10 51.11997 7.50361 14727 ft 411 kts 137°
2026-05-07 16:10 51.09921 7.53520 15244 ft 414 kts 138°
2026-05-07 16:10 51.07828 7.56695 15740 ft 417 kts 138°
2026-05-07 16:11 51.05724 7.59888 16228 ft 420 kts 138°
2026-05-07 16:11 51.03606 7.63105 16717 ft 422 kts 137°
2026-05-07 16:11 51.01472 7.66346 17195 ft 425 kts 137°
2026-05-07 16:11 50.99355 7.69558 17649 ft 428 kts 138°
2026-05-07 16:12 50.97169 7.72791 18094 ft 430 kts 142°
2026-05-07 16:12 50.94731 7.75563 18523 ft 432 kts 150°
2026-05-07 16:12 50.92135 7.78115 18952 ft 434 kts 150°
2026-05-07 16:12 50.89559 7.80642 19381 ft 437 kts 150°
2026-05-07 16:13 50.86969 7.83184 19801 ft 439 kts 150°
2026-05-07 16:13 50.84397 7.85712 20203 ft 442 kts 150°
2026-05-07 16:13 50.81778 7.88287 20596 ft 444 kts 150°
2026-05-07 16:13 50.79110 7.90906 20987 ft 447 kts 150°
2026-05-07 16:14 50.76466 7.93498 21348 ft 449 kts 150°
2026-05-07 16:14 50.73834 7.96075 21679 ft 451 kts 150°
2026-05-07 16:14 50.71155 7.98690 22011 ft 454 kts 150°
2026-05-07 16:14 50.68462 8.01313 22325 ft 457 kts 150°
2026-05-07 16:15 50.65752 8.03945 22646 ft 459 kts 150°
2026-05-07 16:15 50.63031 8.06584 22967 ft 461 kts 150°
2026-05-07 16:15 50.60470 8.09089 23264 ft 464 kts 147°
2026-05-07 16:15 50.57878 8.12276 23576 ft 467 kts 141°
2026-05-07 16:16 50.55419 8.15537 23887 ft 469 kts 141°
2026-05-07 16:16 50.52922 8.18859 24183 ft 471 kts 141°
2026-05-07 16:16 50.50416 8.22178 24472 ft 472 kts 141°
2026-05-07 16:16 50.47890 8.25502 24744 ft 474 kts 141°
2026-05-07 16:17 50.45356 8.28819 25020 ft 475 kts 141°
2026-05-07 16:17 50.42814 8.32135 25282 ft 477 kts 142°
2026-05-07 16:17 50.40250 8.35470 25523 ft 479 kts 142°
2026-05-07 16:17 50.37682 8.38802 25777 ft 481 kts 142°
2026-05-07 16:18 50.35098 8.42152 26029 ft 483 kts 142°
2026-05-07 16:18 50.32505 8.45509 26276 ft 484 kts 142°
2026-05-07 16:18 50.29907 8.48872 26516 ft 486 kts 142°
2026-05-07 16:18 50.27300 8.52247 26873 ft 485 kts 142°
2026-05-07 16:19 50.24701 8.55603 27191 ft 484 kts 142°
2026-05-07 16:19 50.22101 8.58953 27548 ft 483 kts 142°
2026-05-07 16:19 50.19521 8.62273 27919 ft 481 kts 142°
2026-05-07 16:19 50.16937 8.65593 28256 ft 480 kts 142°
2026-05-07 16:20 50.14362 8.68898 28595 ft 479 kts 142°
2026-05-07 16:20 50.11793 8.72186 28905 ft 478 kts 142°
2026-05-07 16:20 50.09220 8.75485 29228 ft 478 kts 141°
2026-05-07 16:20 50.06842 8.79099 29524 ft 479 kts 132°
2026-05-07 16:21 50.04842 8.83233 29820 ft 480 kts 123°
2026-05-07 16:21 50.03264 8.87736 30125 ft 480 kts 116°
2026-05-07 16:21 50.01815 8.92413 30424 ft 480 kts 116°
2026-05-07 16:21 50.00369 8.97073 30725 ft 479 kts 116°
2026-05-07 16:22 49.98920 9.01728 31006 ft 478 kts 116°
2026-05-07 16:22 49.97467 9.06374 31277 ft 478 kts 117°
2026-05-07 16:22 49.96014 9.11010 31588 ft 477 kts 117°
2026-05-07 16:22 49.94562 9.15637 31867 ft 477 kts 117°
2026-05-07 16:23 49.93105 9.20266 32135 ft 476 kts 117°
2026-05-07 16:23 49.91649 9.24886 32398 ft 476 kts 117°
2026-05-07 16:23 49.90194 9.29501 32642 ft 476 kts 117°
2026-05-07 16:23 49.88741 9.34107 32915 ft 476 kts 117°
2026-05-07 16:24 49.87283 9.38720 33170 ft 475 kts 117°
2026-05-07 16:24 49.85829 9.43305 33390 ft 475 kts 117°
2026-05-07 16:24 49.84364 9.47906 33648 ft 475 kts 117°
2026-05-07 16:24 49.82762 9.52360 33907 ft 473 kts 125°
2026-05-07 16:25 49.80757 9.56376 34157 ft 470 kts 134°
2026-05-07 16:25 49.78426 9.59918 34413 ft 469 kts 138°
2026-05-07 16:25 49.76048 9.63356 34668 ft 468 kts 138°
2026-05-07 16:25 49.73672 9.66794 34899 ft 468 kts 138°
2026-05-07 16:26 49.71295 9.70237 35005 ft 469 kts 138°
2026-05-07 16:26 49.66519 9.77146 35010 ft 471 kts 138°
2026-05-07 16:27 49.61735 9.84041 35011 ft 471 kts 138°
2026-05-07 16:27 49.56941 9.90936 35004 ft 471 kts 138°
2026-05-07 16:28 49.52150 9.97809 35012 ft 471 kts 138°
2026-05-07 16:28 49.47352 10.04667 35011 ft 471 kts 138°
2026-05-07 16:29 49.42541 10.11522 35012 ft 471 kts 139°
2026-05-07 16:29 49.37720 10.18361 35011 ft 472 kts 139°
2026-05-07 16:30 49.32893 10.25204 35009 ft 472 kts 139°
2026-05-07 16:30 49.28101 10.31986 35006 ft 472 kts 139°
2026-05-07 16:31 49.23265 10.38798 35008 ft 472 kts 139°
2026-05-07 16:31 49.18510 10.45730 35013 ft 473 kts 137°
2026-05-07 16:32 49.13838 10.52788 35007 ft 472 kts 136°
2026-05-07 16:32 49.09147 10.59829 35008 ft 472 kts 137°
2026-05-07 16:33 49.04419 10.66798 35010 ft 472 kts 137°
2026-05-07 16:33 48.99687 10.73731 35009 ft 472 kts 137°
2026-05-07 16:34 48.94955 10.80682 35006 ft 472 kts 137°
2026-05-07 16:34 48.90224 10.87616 35000 ft 472 kts 137°
2026-05-07 16:35 48.85489 10.94534 35007 ft 472 kts 137°
2026-05-07 16:35 48.80745 11.01445 35006 ft 472 kts 137°
2026-05-07 16:36 48.76019 11.08321 35010 ft 473 kts 137°
2026-05-07 16:36 48.71256 11.15218 35013 ft 472 kts 137°
2026-05-07 16:37 48.66498 11.22099 35008 ft 472 kts 135°
2026-05-07 16:37 48.62659 11.30147 35015 ft 474 kts 118°
2026-05-07 16:38 48.59652 11.39000 35007 ft 474 kts 118°
2026-05-07 16:38 48.56614 11.47866 35006 ft 475 kts 118°
2026-05-07 16:39 48.53570 11.56704 35001 ft 475 kts 118°
2026-05-07 16:39 48.50512 11.65559 35000 ft 475 kts 118°
2026-05-07 16:40 48.47455 11.74398 34997 ft 475 kts 118°
2026-05-07 16:40 48.44387 11.83226 35004 ft 475 kts 118°
2026-05-07 16:41 48.41316 11.92032 35004 ft 475 kts 118°
2026-05-07 16:41 48.38246 12.00836 35007 ft 475 kts 118°
2026-05-07 16:42 48.35669 12.08195 35004 ft 475 kts 118°
2026-05-07 16:42 48.32577 12.16986 35007 ft 475 kts 118°
2026-05-07 16:43 48.29480 12.25757 35007 ft 475 kts 119°
2026-05-07 16:43 48.26376 12.34519 35011 ft 475 kts 119°
2026-05-07 16:44 48.23261 12.43268 35011 ft 475 kts 119°
2026-05-07 16:44 48.20147 12.52003 35006 ft 475 kts 119°
2026-05-07 16:45 48.17051 12.60667 35007 ft 474 kts 119°
2026-05-07 16:45 48.13886 12.69405 34996 ft 474 kts 123°
2026-05-07 16:46 48.10203 12.77504 34996 ft 473 kts 126°
2026-05-07 16:46 48.06471 12.85612 34992 ft 473 kts 126°
2026-05-07 16:47 48.02737 12.93707 34996 ft 473 kts 126°
2026-05-07 16:47 47.98993 13.01807 34998 ft 474 kts 126°
2026-05-07 16:48 47.95243 13.09900 34989 ft 474 kts 126°
2026-05-07 16:48 47.91485 13.17983 34995 ft 474 kts 126°
2026-05-07 16:49 47.87715 13.26049 34986 ft 475 kts 126°
2026-05-07 16:49 47.83932 13.34120 34999 ft 475 kts 126°
2026-05-07 16:50 47.80136 13.42182 35010 ft 475 kts 126°
2026-05-07 16:50 47.76323 13.50292 35000 ft 476 kts 126°
2026-05-07 16:51 47.72525 13.58345 34998 ft 476 kts 126°
2026-05-07 16:51 47.68713 13.66392 35007 ft 476 kts 126°
2026-05-07 16:52 47.64895 13.74429 34996 ft 477 kts 126°
2026-05-07 16:52 47.61065 13.82470 35010 ft 477 kts 126°
2026-05-07 16:53 47.57224 13.90495 34998 ft 477 kts 126°
2026-05-07 16:53 47.53414 13.98451 35006 ft 477 kts 126°
2026-05-07 16:54 47.49590 14.06416 35004 ft 478 kts 127°
2026-05-07 16:54 47.45723 14.14410 35013 ft 478 kts 127°
2026-05-07 16:55 47.41833 14.22454 34983 ft 479 kts 127°
2026-05-07 16:55 47.37962 14.30468 34986 ft 480 kts 127°
2026-05-07 16:56 47.34090 14.38438 35003 ft 481 kts 127°
2026-05-07 16:56 47.28220 14.50443 35024 ft 481 kts 127°
2026-05-07 16:57 47.24306 14.58420 35020 ft 480 kts 127°
2026-05-07 16:57 47.20392 14.66382 35025 ft 480 kts 127°
2026-05-07 16:58 47.16485 14.74308 35033 ft 479 kts 127°
2026-05-07 16:58 47.12573 14.82218 35028 ft 478 kts 127°
2026-05-07 16:59 47.08669 14.90099 35008 ft 478 kts 127°
2026-05-07 16:59 47.04755 14.97990 35008 ft 479 kts 127°
2026-05-07 17:00 47.00825 15.05873 35011 ft 478 kts 127°
2026-05-07 17:00 46.96899 15.13728 35019 ft 477 kts 127°
2026-05-07 17:01 46.92973 15.21560 35017 ft 477 kts 127°
2026-05-07 17:01 46.89040 15.29378 35028 ft 477 kts 127°
2026-05-07 17:02 46.85113 15.37174 35031 ft 475 kts 127°
2026-05-07 17:02 46.81194 15.44929 35028 ft 474 kts 127°
2026-05-07 17:03 46.77271 15.52670 35024 ft 474 kts 128°
2026-05-07 17:03 46.73339 15.60390 35024 ft 474 kts 128°
2026-05-07 17:04 46.69435 15.68119 35025 ft 473 kts 126°
2026-05-07 17:04 46.65771 15.76095 35021 ft 474 kts 123°
2026-05-07 17:05 46.62226 15.84171 35020 ft 474 kts 123°
2026-05-07 17:05 46.58625 15.92192 35012 ft 473 kts 124°
2026-05-07 17:06 46.54956 16.00147 35016 ft 473 kts 125°
2026-05-07 17:06 46.51272 16.08072 35020 ft 473 kts 125°
2026-05-07 17:07 46.47596 16.16004 35015 ft 473 kts 125°
2026-05-07 17:07 46.43930 16.23935 35014 ft 473 kts 125°
2026-05-07 17:08 46.40257 16.31862 35018 ft 473 kts 125°
2026-05-07 17:08 46.36571 16.39768 35016 ft 473 kts 125°
2026-05-07 17:09 46.32889 16.47652 35016 ft 473 kts 125°
2026-05-07 17:09 46.29198 16.55539 35017 ft 473 kts 125°
2026-05-07 17:10 46.25498 16.63409 35021 ft 473 kts 125°
2026-05-07 17:10 46.21795 16.71264 35017 ft 473 kts 125°
2026-05-07 17:11 46.18085 16.79110 35018 ft 473 kts 125°
2026-05-07 17:11 46.14369 16.86946 35018 ft 473 kts 125°
2026-05-07 17:12 46.10650 16.94778 35021 ft 473 kts 125°
2026-05-07 17:12 46.06931 17.02591 35024 ft 473 kts 126°
2026-05-07 17:13 46.03205 17.10396 35021 ft 473 kts 126°
2026-05-07 17:13 45.99474 17.18200 35024 ft 473 kts 126°
2026-05-07 17:14 45.95736 17.25987 35018 ft 473 kts 126°
2026-05-07 17:14 45.91991 17.33750 35016 ft 473 kts 126°
2026-05-07 17:15 45.88263 17.41457 35016 ft 472 kts 126°
2026-05-07 17:15 45.84513 17.49203 35016 ft 472 kts 126°
2026-05-07 17:16 45.80757 17.56939 35020 ft 472 kts 126°
2026-05-07 17:16 45.76997 17.64660 35015 ft 472 kts 126°
2026-05-07 17:17 45.73234 17.72363 35016 ft 472 kts 126°
2026-05-07 17:17 45.69467 17.80063 35013 ft 472 kts 126°
2026-05-07 17:18 45.65691 17.87757 35015 ft 472 kts 126°
2026-05-07 17:18 45.61915 17.95418 35011 ft 472 kts 126°
2026-05-07 17:19 45.58134 18.03074 35005 ft 472 kts 126°
2026-05-07 17:19 45.54351 18.10730 35011 ft 472 kts 126°
2026-05-07 17:20 45.50564 18.18362 35005 ft 472 kts 126°
2026-05-07 17:20 45.47402 18.24701 35009 ft 472 kts 126°
2026-05-07 17:21 45.43604 18.32320 35009 ft 472 kts 126°
2026-05-07 17:21 45.39801 18.39943 35011 ft 472 kts 126°
2026-05-07 17:22 45.35988 18.47547 35012 ft 472 kts 127°
2026-05-07 17:22 45.32171 18.55133 35010 ft 472 kts 127°
2026-05-07 17:23 45.28349 18.62720 35005 ft 472 kts 127°
2026-05-07 17:23 45.24525 18.70284 35002 ft 472 kts 127°
2026-05-07 17:24 45.20696 18.77834 35003 ft 472 kts 127°
2026-05-07 17:24 45.16861 18.85387 35007 ft 472 kts 127°
2026-05-07 17:25 45.13023 18.92925 35011 ft 472 kts 127°
2026-05-07 17:25 45.09177 19.00447 35014 ft 472 kts 127°
2026-05-07 17:26 45.05323 19.07968 35013 ft 472 kts 127°
2026-05-07 17:26 45.01467 19.15471 35008 ft 472 kts 127°
2026-05-07 17:27 44.97612 19.22969 35013 ft 472 kts 127°
2026-05-07 17:27 44.93750 19.30456 35002 ft 472 kts 127°
2026-05-07 17:28 44.89881 19.37917 35002 ft 472 kts 127°
2026-05-07 17:28 44.86003 19.45390 35006 ft 472 kts 127°
2026-05-07 17:29 44.82130 19.52839 35007 ft 472 kts 127°
2026-05-07 17:29 44.78272 19.60239 35006 ft 472 kts 127°
2026-05-07 17:30 44.74381 19.67671 35006 ft 472 kts 127°
2026-05-07 17:30 44.70486 19.75091 35007 ft 472 kts 127°
2026-05-07 17:31 44.66587 19.82506 35010 ft 472 kts 127°
2026-05-07 17:31 44.62679 19.89928 35004 ft 472 kts 128°
2026-05-07 17:32 44.58771 19.97332 35015 ft 472 kts 128°
2026-05-07 17:32 44.54862 20.04728 35008 ft 472 kts 128°
2026-05-07 17:33 44.50938 20.12119 35014 ft 472 kts 128°
2026-05-07 17:33 44.47004 20.19487 35017 ft 472 kts 128°
2026-05-07 17:34 44.43072 20.26838 35016 ft 472 kts 128°
2026-05-07 17:34 44.39138 20.34197 35015 ft 472 kts 128°
2026-05-07 17:35 44.35208 20.41550 35009 ft 472 kts 128°
2026-05-07 17:35 44.31259 20.48895 35003 ft 473 kts 128°
2026-05-07 17:36 44.27295 20.56221 35002 ft 473 kts 128°
2026-05-07 17:36 44.23333 20.63532 35001 ft 474 kts 128°
2026-05-07 17:37 44.19365 20.70861 35011 ft 474 kts 128°
2026-05-07 17:37 44.15393 20.78177 35013 ft 473 kts 128°
2026-05-07 17:38 44.11417 20.85484 35017 ft 473 kts 128°
2026-05-07 17:38 44.07436 20.92776 35009 ft 473 kts 128°
2026-05-07 17:39 44.03448 21.00060 35014 ft 473 kts 128°
2026-05-07 17:39 43.99452 21.07328 35013 ft 473 kts 128°
2026-05-07 17:40 43.95458 21.14592 35011 ft 474 kts 128°
2026-05-07 17:40 43.91458 21.21857 35015 ft 473 kts 128°
2026-05-07 17:41 43.87458 21.29095 35016 ft 473 kts 128°
2026-05-07 17:41 43.83442 21.36333 35016 ft 473 kts 129°
2026-05-07 17:42 43.79426 21.43550 35016 ft 473 kts 129°
2026-05-07 17:42 43.75412 21.50757 35013 ft 473 kts 129°
2026-05-07 17:43 43.71391 21.57960 35019 ft 473 kts 129°
2026-05-07 17:43 43.67345 21.65129 35008 ft 473 kts 130°
2026-05-07 17:44 43.63162 21.72153 35009 ft 473 kts 131°
2026-05-07 17:44 43.58915 21.79099 34999 ft 474 kts 131°
2026-05-07 17:45 43.54682 21.86063 35001 ft 474 kts 131°
2026-05-07 17:45 43.50484 21.93013 35003 ft 475 kts 131°
2026-05-07 17:46 43.46262 22.00002 35015 ft 475 kts 131°
2026-05-07 17:46 43.42035 22.06982 35010 ft 475 kts 131°
2026-05-07 17:47 43.37806 22.13948 35013 ft 475 kts 131°
2026-05-07 17:47 43.33560 22.20911 35002 ft 476 kts 131°
2026-05-07 17:48 43.29305 22.27870 35003 ft 476 kts 131°
2026-05-07 17:48 43.25034 22.34830 35007 ft 476 kts 131°
2026-05-07 17:49 43.20776 22.41766 35018 ft 476 kts 131°
2026-05-07 17:49 43.16509 22.48700 35017 ft 475 kts 131°
2026-05-07 17:50 43.12248 22.55615 35021 ft 475 kts 131°
2026-05-07 17:50 43.08012 22.62467 35020 ft 475 kts 131°
2026-05-07 17:51 43.03742 22.69355 35019 ft 475 kts 131°
2026-05-07 17:51 42.99465 22.76227 35016 ft 475 kts 131°
2026-05-07 17:52 42.94886 22.82684 35011 ft 473 kts 140°
2026-05-07 17:52 42.89967 22.88667 35016 ft 474 kts 140°
2026-05-07 17:53 42.85040 22.94629 35010 ft 474 kts 140°
2026-05-07 17:53 42.80103 23.00605 35007 ft 474 kts 140°
2026-05-07 17:54 42.75170 23.06577 35007 ft 475 kts 140°
2026-05-07 17:54 42.70235 23.12542 35007 ft 475 kts 140°
2026-05-07 17:55 42.65286 23.18490 35010 ft 475 kts 140°
2026-05-07 17:55 42.60333 23.24438 35002 ft 476 kts 140°
2026-05-07 17:56 42.55367 23.30401 34980 ft 478 kts 139°
2026-05-07 17:56 42.50464 23.36525 35001 ft 480 kts 138°
2026-05-07 17:57 42.46436 23.41687 35014 ft 479 kts 138°
2026-05-07 17:57 42.40760 23.48910 35021 ft 479 kts 138°
2026-05-07 17:58 42.35908 23.54990 35028 ft 478 kts 139°
2026-05-07 17:58 42.31023 23.61078 35027 ft 478 kts 139°
2026-05-07 17:59 42.26139 23.67168 35020 ft 478 kts 139°
2026-05-07 17:59 42.21311 23.73185 35008 ft 481 kts 139°
2026-05-07 18:00 42.16375 23.79334 35005 ft 484 kts 139°
2026-05-07 18:00 42.11429 23.85480 35008 ft 483 kts 139°
2026-05-07 18:01 42.06500 23.91583 35008 ft 481 kts 139°
2026-05-07 18:01 42.01583 23.97649 35018 ft 479 kts 139°
2026-05-07 18:02 41.94223 24.06711 35022 ft 478 kts 139°
2026-05-07 18:03 41.89310 24.12745 35011 ft 479 kts 139°
2026-05-07 18:03 41.84388 24.18787 35006 ft 480 kts 139°
2026-05-07 18:04 41.79455 24.24821 35008 ft 480 kts 139°
2026-05-07 18:04 41.74514 24.30848 35025 ft 480 kts 139°
2026-05-07 18:05 41.70406 24.35845 35017 ft 480 kts 139°
2026-05-07 18:05 41.65466 24.41840 35023 ft 479 kts 139°
2026-05-07 18:06 41.60517 24.47841 35014 ft 480 kts 139°
2026-05-07 18:06 41.55577 24.53841 35009 ft 481 kts 139°
2026-05-07 18:07 41.50616 24.59831 35021 ft 481 kts 139°
2026-05-07 18:07 41.45655 24.65810 35030 ft 480 kts 139°
2026-05-07 18:08 41.40699 24.71772 35025 ft 480 kts 139°
2026-05-07 18:08 41.35721 24.77683 35019 ft 480 kts 140°
2026-05-07 18:09 41.30717 24.83563 35021 ft 480 kts 140°
2026-05-07 18:09 41.25721 24.89443 35035 ft 479 kts 140°
2026-05-07 18:10 41.20744 24.95305 35037 ft 477 kts 140°
2026-05-07 18:10 41.15780 25.01141 35033 ft 476 kts 140°
2026-05-07 18:11 41.10826 25.06962 35039 ft 475 kts 140°
2026-05-07 18:11 41.05892 25.12745 35039 ft 473 kts 140°
2026-05-07 18:12 41.00966 25.18504 35035 ft 472 kts 140°
2026-05-07 18:12 40.96038 25.24240 35031 ft 471 kts 140°
2026-05-07 18:13 40.91117 25.29955 35028 ft 471 kts 139°
2026-05-07 18:13 40.86603 25.36241 35026 ft 471 kts 134°
2026-05-07 18:14 40.82168 25.42615 35024 ft 471 kts 134°
2026-05-07 18:14 40.77722 25.48973 35024 ft 471 kts 134°
2026-05-07 18:15 40.73272 25.55321 35023 ft 471 kts 134°
2026-05-07 18:15 40.68819 25.61663 35022 ft 471 kts 134°
2026-05-07 18:16 40.64362 25.68001 35022 ft 471 kts 134°
2026-05-07 18:16 40.59899 25.74329 35023 ft 471 kts 134°
2026-05-07 18:17 40.55441 25.80640 35022 ft 471 kts 134°
2026-05-07 18:17 40.50969 25.86959 35022 ft 471 kts 134°
2026-05-07 18:18 40.46557 25.93326 35022 ft 472 kts 133°
2026-05-07 18:18 40.42278 25.99783 35023 ft 472 kts 132°
2026-05-07 18:19 40.37988 26.06298 35023 ft 472 kts 132°
2026-05-07 18:19 40.33664 26.12765 35022 ft 472 kts 133°
2026-05-07 18:20 40.29307 26.19202 35022 ft 472 kts 133°
2026-05-07 18:20 40.24928 26.25682 35022 ft 472 kts 133°
2026-05-07 18:21 40.20587 26.32120 35021 ft 472 kts 133°
2026-05-07 18:21 40.16233 26.38543 35022 ft 472 kts 133°
2026-05-07 18:22 40.11864 26.44874 35022 ft 471 kts 135°
2026-05-07 18:22 40.07223 26.50922 35015 ft 471 kts 137°
2026-05-07 18:23 40.02465 26.56823 35015 ft 472 kts 137°
2026-05-07 18:23 39.97743 26.62765 35013 ft 472 kts 137°
2026-05-07 18:24 39.93050 26.68781 35010 ft 473 kts 136°
2026-05-07 18:24 39.88361 26.74800 35018 ft 473 kts 137°
2026-05-07 18:25 39.83666 26.80799 35023 ft 473 kts 137°
2026-05-07 18:25 39.78957 26.86778 35019 ft 473 kts 137°
2026-05-07 18:26 39.74223 26.92744 35004 ft 474 kts 137°
2026-05-07 18:26 39.69677 26.98322 35002 ft 476 kts 138°
2026-05-07 18:27 39.64840 27.04194 35015 ft 476 kts 138°
2026-05-07 18:27 39.60054 27.10025 35031 ft 475 kts 138°
2026-05-07 18:28 39.55258 27.15890 35035 ft 474 kts 138°
2026-05-07 18:28 39.50473 27.21749 35026 ft 473 kts 136°
2026-05-07 18:29 39.46185 27.28241 35016 ft 475 kts 130°
2026-05-07 18:29 39.41979 27.34839 35016 ft 476 kts 130°
2026-05-07 18:30 39.37759 27.41435 35015 ft 476 kts 130°
2026-05-07 18:30 39.33536 27.48026 35020 ft 476 kts 131°
2026-05-07 18:31 39.29308 27.54600 35026 ft 476 kts 131°
2026-05-07 18:31 39.25081 27.61168 35030 ft 475 kts 131°
2026-05-07 18:32 39.20863 27.67721 35030 ft 475 kts 131°
2026-05-07 18:32 39.16627 27.74273 35028 ft 475 kts 131°
2026-05-07 18:33 39.12398 27.80792 35029 ft 474 kts 131°
2026-05-07 18:33 39.08161 27.87318 35027 ft 474 kts 131°
2026-05-07 18:34 39.03927 27.93827 35026 ft 474 kts 131°
2026-05-07 18:34 38.99683 28.00341 35017 ft 475 kts 131°
2026-05-07 18:35 38.95430 28.06851 35009 ft 476 kts 131°
2026-05-07 18:35 38.91167 28.13360 35015 ft 476 kts 131°
2026-05-07 18:36 38.86893 28.19884 35014 ft 477 kts 131°
2026-05-07 18:36 38.82630 28.26384 35022 ft 477 kts 131°
2026-05-07 18:37 38.78347 28.32893 35025 ft 477 kts 131°
2026-05-07 18:37 38.74071 28.39370 35030 ft 476 kts 131°